Location: Unspecified
(0.0000°N, 0.0000°E)
Time: 15:07:19
(UTC+00:00)

Courier 1B - Pass Details

Date: 11 February 2026
Orbit: 962 x 1208 km, 28.3° (Epoch: 16 March)

Event Time Altitude Azimuth Distance (km) Brightness Sun altitude
Rises 19:20:11 0° 255° (WSW) 3,888 12.5 -16.0°
Reaches altitude 10° 19:23:01 10° 262° (W) 2,967 11.4 -16.7°
Maximum altitude 19:29:56 43° 331° (NNW) 1,559 8.6 -18.4°
Enters shadow 19:35:07 19° 33° (NNE) 2,484 9.2 -19.6°
